Simultaneous Nadir Overpasses (SNOs) Predictions

Prediction of SNOs between LANDSAT-8 and NOAA-19 Satellite Orbit:

Table of predicted SNOs for the next 14.0 days since TLE Epoch: 4/6/2024
Index Date (LANDSAT-8) Time (LANDSAT-8) Lat,Lon (LANDSAT-8) SZA (LANDSAT-8 ) Date (NOAA-19) Time (NOAA-19) Lat,Lon (NOAA-19) SZA (NOAA-19 ) Distance(km) Time Diff (sec)
1 04/07/2024 00:18:39 80.77,-149.99 75.42 04/07/2024 00:18:20 80.77,-150.07 75.40 1.37 19
2 04/07/2024 01:08:05 -80.79, 17.94 104.56 04/07/2024 01:09:14 -80.79, 17.80 104.54 2.38 69
3 04/09/2024 06:41:48 80.77, 114.20 74.58 04/09/2024 06:41:21 80.77, 114.29 74.59 1.78 27
4 04/09/2024 07:31:14 -80.79, -77.85 105.38 04/09/2024 07:32:16 -80.78, -78.01 105.38 2.90 62
5 04/11/2024 13:04:58 80.76, 18.29 73.75 04/11/2024 13:04:24 80.76, 18.22 73.73 1.15 34
6 04/11/2024 13:54:24 -80.78,-173.74 106.21 04/11/2024 13:55:19 -80.78,-173.88 106.21 2.52 55
7 04/13/2024 19:28:07 80.77, -77.38 72.96 04/13/2024 19:27:26 80.75, -77.55 72.92 3.35 41
8 04/13/2024 20:17:34 -80.77, 90.27 107.05 04/13/2024 20:18:22 -80.77, 90.20 107.04 1.42 48
9 04/16/2024 01:51:17 80.74,-173.48 72.12 04/16/2024 01:50:28 80.75,-173.39 72.12 1.86 49
10 04/16/2024 02:40:43 -80.77, -5.47 107.83 04/16/2024 02:41:24 -80.77, -5.43 107.81 0.86 41
11 04/18/2024 08:14:26 80.74, 90.66 71.33 04/18/2024 08:13:30 80.74, 90.71 71.32 1.11 56



Historial Predications of SNOs between LANDSAT-8 and NOAA-19
